| time (UTC) | temp F | wind direction | speed knots | gust knots | rain 1hr in | rain 24hr in | rain mn in | humidity % | barometer mb |
| 20260505233056 | 62 | 232 | 0.0 | 2.6 | 0.00 | 0.00 | 0.00 | 69 | 1013.7 |
| 20260505231607 | 62 | 9 | 0.9 | 3.5 | 0.00 | 0.00 | 0.00 | 71 | 1013.8 |
| 20260505230056 | 62 | 256 | 0.0 | 2.6 | 0.00 | 0.00 | 0.00 | 69 | 1013.8 |
| 20260505224555 | 62 | 261 | 0.0 | 7.0 | 0.00 | 0.00 | 0.00 | 69 | 1013.8 |
| 20260505223103 | 62 | 315 | 1.7 | 4.3 | 0.00 | 0.00 | 0.00 | 71 | 1014.0 |
| 20260505221558 | 62 | 32 | 0.0 | 3.5 | 0.00 | 0.00 | 0.00 | 70 | 1014.1 |
| 20260505220053 | 62 | 42 | 0.9 | 5.2 | 0.00 | 0.00 | 0.00 | 72 | 1014.1 |
| 20260505214613 | 62 | 31 | 1.7 | 4.3 | 0.00 | 0.00 | 0.00 | 72 | 1014.2 |
| 20260505213056 | 61 | 41 | 0.9 | 7.0 | 0.00 | 0.00 | 0.00 | 74 | 1014.3 |
| 20260505211549 | 61 | 51 | 0.0 | 0.9 | 0.00 | 0.00 | 0.00 | 71 | 1014.4 |
| 20260505210048 | 62 | 304 | 0.0 | 2.6 | 0.00 | 0.00 | 0.00 | 72 | 1014.2 |
| 20260505204548 | 61 | 17 | 1.7 | 5.2 | 0.00 | 0.00 | 0.00 | 74 | 1014.3 |
| 20260505203047 | 61 | 305 | 2.6 | 6.1 | 0.00 | 0.00 | 0.00 | 71 | 1014.4 |
| 20260505201546 | 61 | 309 | 0.0 | 5.2 | 0.00 | 0.00 | 0.00 | 71 | 1014.3 |
| 20260505200056 | 61 | 290 | 1.7 | 5.2 | 0.00 | 0.00 | 0.00 | 71 | 1014.5 |
| 20260505194545 | 61 | 9 | 1.7 | 4.3 | 0.00 | 0.00 | 0.00 | 72 | 1014.7 |
| 20260505193044 | 62 | 306 | 0.9 | 4.3 | 0.00 | 0.00 | 0.00 | 73 | 1014.8 |
| 20260505191546 | 61 | 291 | 0.0 | 2.6 | 0.00 | 0.00 | 0.00 | 75 | 1014.6 |
| 20260505190043 | 60 | 269 | 0.9 | 3.5 | 0.00 | 0.00 | 0.00 | 72 | 1014.5 |
| 20260505184535 | 59 | 21 | 2.6 | 5.2 | 0.00 | 0.00 | 0.00 | 75 | 1014.5 |
| 20260505183049 | 58 | 324 | 0.0 | 2.6 | 0.00 | 0.00 | 0.00 | 75 | 1014.5 |
| 20260505181528 | 58 | 32 | 1.7 | 3.5 | 0.00 | 0.00 | 0.00 | 77 | 1014.6 |
| 20260505180027 | 58 | 344 | 0.0 | 5.2 | 0.00 | 0.00 | 0.00 | 77 | 1014.4 |
| 20260505174527 | 58 | 350 | 2.6 | 6.1 | 0.00 | 0.00 | 0.00 | 74 | 1014.4 |
| 20260505173024 | 58 | 48 | 0.0 | 3.5 | 0.00 | 0.00 | 0.00 | 76 | 1014.2 |
| 20260505171522 | 58 | 28 | 0.0 | 0.0 | 0.00 | 0.00 | 0.00 | 74 | 1014.0 |
| 20260505170023 | 57 | 81 | 0.0 | 0.0 | 0.00 | 0.00 | 0.00 | 78 | 1014.0 |
| 20260505164520 | 57 | 113 | 0.0 | 1.7 | 0.00 | 0.00 | 0.00 | 76 | 1014.0 |
| 20260505163020 | 57 | 67 | 0.0 | 1.7 | 0.00 | 0.00 | 0.00 | 77 | 1013.9 |
| 20260505161518 | 57 | 195 | 0.0 | 0.0 | 0.00 | 0.00 | 0.00 | 74 | 1014.0 |
| 20260505153009 | 56 | 132 | 0.0 | 0.0 | 0.00 | 0.00 | 0.00 | 79 | 1013.8 |
| 20260505151507 | 55 | 136 | 0.0 | 1.7 | 0.00 | 0.00 | 0.00 | 82 | 1013.6 |
| 20260505140114 | 53 | 231 | 0.0 | 0.0 | 0.00 | 0.00 | 0.00 | 84 | 1013.3 |
| 20260505124553 | 52 | 247 | 0.0 | 0.0 | 0.00 | 0.00 | 0.00 | 85 | 1013.0 |
| 20260505123054 | 52 | 355 | 0.0 | 0.0 | 0.00 | 0.00 | 0.00 | 86 | 1013.1 |
| 20260505121550 | 52 | 355 | 0.0 | 0.0 | 0.00 | 0.00 | 0.00 | 85 | 1013.1 |
| 20260505120053 | 52 | 355 | 0.0 | 0.0 | 0.00 | 0.00 | 0.00 | 86 | 1013.2 |
| 20260505114557 | 53 | 355 | 0.0 | 0.0 | 0.00 | 0.00 | 0.00 | 85 | 1013.3 |
| 20260505113054 | 53 | 355 | 0.0 | 2.6 | 0.00 | 0.00 | 0.00 | 84 | 1013.5 |
| 20260505111545 | 53 | 319 | 0.0 | 0.0 | 0.00 | 0.00 | 0.00 | 84 | 1013.2 |
| 20260505101549 | 54 | 300 | 0.9 | 3.5 | 0.00 | 0.00 | 0.00 | 77 | 1013.1 |
| 20260505100038 | 54 | 305 | 0.9 | 2.6 | 0.00 | 0.00 | 0.00 | 78 | 1013.3 |
| 20260505094540 | 54 | 315 | 0.0 | 2.6 | 0.00 | 0.00 | 0.00 | 77 | 1013.3 |
| 20260505093034 | 54 | 325 | 0.9 | 5.2 | 0.00 | 0.00 | 0.00 | 75 | 1013.5 |
| 20260505091535 | 55 | 226 | 0.0 | 3.5 | 0.00 | 0.00 | 0.00 | 71 | 1013.4 |
| 20260505090030 | 55 | 319 | 0.9 | 4.3 | 0.00 | 0.00 | 0.00 | 70 | 1013.5 |
| 20260505084528 | 55 | 292 | 3.5 | 7.8 | 0.00 | 0.00 | 0.00 | 70 | 1013.7 |
| 20260505083026 | 55 | 324 | 2.6 | 7.0 | 0.00 | 0.00 | 0.00 | 70 | 1013.9 |
| 20260505081525 | 55 | 339 | 3.5 | 9.6 | 0.00 | 0.00 | 0.00 | 70 | 1013.9 |
| 20260505080026 | 55 | 340 | 6.1 | 9.6 | 0.00 | 0.00 | 0.00 | 70 | 1014.0 |
| 20260505074518 | 56 | 338 | 3.5 | 7.8 | 0.00 | 0.00 | 0.00 | 71 | 1013.9 |
| 20260505073013 | 56 | 321 | 4.3 | 7.8 | 0.00 | 0.00 | 0.00 | 72 | 1014.0 |
| 20260505071525 | 55 | 21 | 3.5 | 7.0 | 0.00 | 0.00 | 0.00 | 75 | 1013.7 |
| 20260505070008 | 56 | 315 | 2.6 | 6.1 | 0.00 | 0.00 | 0.00 | 77 | 1013.6 |
| 20260505064509 | 56 | 338 | 0.9 | 7.0 | 0.00 | 0.00 | 0.00 | 77 | 1013.7 |
| 20260505063007 | 56 | 335 | 1.7 | 4.3 | 0.00 | 0.00 | 0.00 | 78 | 1013.7 |
| 20260505061505 | 56 | 310 | 0.9 | 6.1 | 0.00 | 0.00 | 0.00 | 79 | 1013.4 |
| 20260505060016 | 56 | 295 | 3.5 | 5.2 | 0.00 | 0.00 | 0.00 | 78 | 1013.4 |
| 20260505054504 | 57 | 332 | 0.9 | 4.3 | 0.00 | 0.00 | 0.00 | 77 | 1013.6 |
| 20260505053003 | 57 | 335 | 1.7 | 7.0 | 0.00 | 0.00 | 0.00 | 76 | 1013.6 |
| 20260505051506 | 57 | 323 | 0.0 | 7.0 | 0.00 | 0.00 | 0.00 | 75 | 1013.9 |
| 20260505041603 | 58 | 322 | 1.7 | 5.2 | 0.00 | 0.00 | 0.00 | 73 | 1013.5 |
| 20260505040057 | 58 | 348 | 4.3 | 8.7 | 0.00 | 0.00 | 0.00 | 71 | 1013.2 |
| 20260505034556 | 59 | 345 | 2.6 | 7.8 | 0.00 | 0.00 | 0.00 | 70 | 1013.0 |
| 20260505033055 | 59 | 36 | 0.9 | 6.1 | 0.00 | 0.00 | 0.00 | 69 | 1012.8 |
| 20260505031557 | 59 | 304 | 1.7 | 7.0 | 0.00 | 0.00 | 0.00 | 67 | 1012.6 |
| 20260505030055 | 60 | 327 | 2.6 | 7.8 | 0.00 | 0.00 | 0.00 | 66 | 1012.7 |
| 20260505024603 | 60 | 297 | 2.6 | 7.0 | 0.00 | 0.00 | 0.00 | 65 | 1012.7 |
| 20260505023054 | 60 | 321 | 3.5 | 7.0 | 0.00 | 0.00 | 0.00 | 63 | 1012.6 |
| 20260505021553 | 61 | 336 | 6.1 | 9.6 | 0.00 | 0.00 | 0.00 | 61 | 1012.5 |
| 20260505020052 | 61 | 340 | 1.7 | 9.6 | 0.00 | 0.00 | 0.00 | 63 | 1012.5 |
| 20260505014552 | 61 | 9 | 5.2 | 11.3 | 0.00 | 0.00 | 0.00 | 63 | 1012.5 |
| 20260505013102 | 62 | 342 | 2.6 | 8.7 | 0.00 | 0.00 | 0.00 | 60 | 1012.5 |
| 20260505011551 | 63 | 355 | 5.2 | 9.6 | 0.00 | 0.00 | 0.00 | 61 | 1012.7 |
| 20260505010100 | 63 | 331 | 4.3 | 10.4 | 0.00 | 0.00 | 0.00 | 61 | 1012.8 |
| 20260505004550 | 63 | 309 | 3.5 | 12.2 | 0.00 | 0.00 | 0.00 | 63 | 1012.9 |
| 20260505003046 | 64 | 342 | 2.6 | 8.7 | 0.00 | 0.00 | 0.00 | 63 | 1012.9 |
| 20260505001546 | 64 | 299 | 1.7 | 9.6 | 0.00 | 0.00 | 0.00 | 63 | 1012.9 |
| 20260505000057 | 63 | 320 | 2.6 | 9.6 | 0.00 | 0.00 | 0.00 | 62 | 1012.8 |
| 20260504234547 | 63 | 347 | 4.3 | 7.8 | 0.00 | 0.00 | 0.00 | 61 | 1012.7 |